Regional Weather Roundup
Issued by NWS Green Bay, WI

Home | Current Version | Previous Version | Graphics & Text | Print | Product List | Glossary Off
Versions: 1 2 3 4 5 6 7 8 9 10 11 12 13 14 15 16 17 18 19 20 21 22 23 24 25 26 27 28 29 30 31 32 33 34 35 36 37 38 39 40 41 42 43 44 45 46 47 48 49 50

000
ASUS43 KGRB 270611
RWRGRB

NORTH-CENTRAL AND NORTHEAST WISCONSIN REGIONAL WEATHER ROUNDUP
NATIONAL WEATHER SERVICE GREEN BAY WI
100 AM CDT THU APR 27 2017

WIZ005-009-010>012-018-019-270700-
NORTH CENTRAL WISCONSIN

CITY           SKY/WX    TMP DP  RH WIND       PRES   REMARKS
IRONWOOD       LGT SNOW  27  26  96 N8        29.56S FOG
MANITOWISH WTR CLOUDY    28  28 100 N7        29.50F
ARBOR VITAE    CLOUDY    32  30  92 N12       29.48F
EAGLE RIVER    CLOUDY    31  30  96 N8        29.47F
LAND O LAKES   LGT SNOW  31  29  95 N12G17    29.49F
RHINELANDER    CLOUDY    34  33  96 N6        29.47F
PHILLIPS       CLOUDY    30  28  93 N7        29.50F
ANTIGO         CLOUDY    37  36  96 N12       29.45F
TOMAHAWK       CLOUDY    32  31  93 N6        29.49S
MERRILL        CLOUDY    35  35  99 N8        29.47F
$$

WIZ013-073-270700-
NORTHEAST WISCONSIN

CITY           SKY/WX    TMP DP  RH WIND       PRES   REMARKS
IRON MOUNTAIN  CLOUDY    38  34  85 NW12      29.45F
MARINETTE      LGT RAIN  46  42  86 N12       29.44R
OCONTO         CLOUDY    50  48  93 N6        29.43S
$$

WIZ017-030-035>037-045-270700-
CENTRAL WISCONSIN

CITY           SKY/WX    TMP DP  RH WIND       PRES   REMARKS
MEDFORD        CLOUDY    34  33  97 N7        29.47S FOG
WAUSAU         CLOUDY    38  35  89 NW9       29.45F
MOSINEE        CLOUDY    37  37 100 N7        29.47S
MARSHFIELD     CLOUDY    39  35  86 N8        29.46S
WISC RAPIDS    CLOUDY    42  39  89 NW8       29.47F
STEVENS POINT  CLOUDY    40  40 100 W3        29.46R
WAUPACA        CLOUDY    46  41  82 W3        29.46S
SHAWANO        CLOUDY    48  44  85 NW3       29.44F
CLINTONVILLE   CLOUDY    46  43  87 N6        29.44F
WAUTOMA        CLOUDY    44  42  93 NW7       29.46F
$$

WIZ038-039-048-051-270700-
FOX VALLEY

CITY           SKY/WX    TMP DP  RH WIND       PRES   REMARKS
NWS GREEN BAY  LGT RAIN  51  50  96 W5        29.43F
APPLETON       CLOUDY    46  43  87 NW7       29.42F
OSHKOSH        CLOUDY    47  44  90 NW8       29.42F
FOND DU LAC    LGT RAIN  48  44  86 NW7       29.43F
$$

WIZ022-050-052-270700-
EAST CENTRAL WISCONSIN

CITY           SKY/WX    TMP DP  RH WIND       PRES   REMARKS
EPHRAIM        DRIZZLE   47  47 100 N8        29.42F
WASHINGTON ISL CLOUDY    48  47  97 N9        29.42S FOG
STURGEON BAY   LGT RAIN  55  52  89 W5        29.43S
MANITOWOC      CLOUDY    53  51  93 NW7       29.43F
SHEBOYGAN      LGT RAIN  51  49  92 NW7       29.42F
$$

LMZ563-521-522-541>543-270700-
LAKESHORE

STATION/POSITION TIME  TEMP    WIND        PRES    VSBY  WAVE
                       AIR SEA DIR/SP/G                  HT/PER
                 (UTC) (F)     (DEG/KT/KT) (MB)    (MI)  (FT/S)
SHEBOYGAN LKSHOR 0600   53     320/  6/  7  996.2F
KEWAUNEE LKSHORE 0548   55     280/  7/ 10  996.3F
NORTHPORT PIER   0540   47     300/  9/ 12  996.6S
N MID LAKE BUOY  0550   41 37  180/  6/  6  997.3F         2/ 5
CHAMBERS ISLAND  0540   45     300/  8/ 11  997.3R
MENOMINEE LKSHOR 0548   47     310/ 11/ 13  996.2R
$$




USA.gov is the U.S. government's official web portal to all federal, state and local government web resources and services.